Location: Izdebno
(52.6670°N, 16.2170°E)
Time: 04:13:54
(UTC+02:00)

A-11 Canister half - Pass Details

Date: 10 February 2023
Orbit: 1526 x 1682 km, 47.3° (Epoch: 24 March)

Event Time Altitude Azimuth Distance (km) Brightness Sun altitude
Rises 03:21:12 0° 210° (SSW) 4,688 - -36.3°
Reaches altitude 10° 03:24:39 10° 201° (SSW) 3,697 - -35.8°
Exits shadow 03:30:25 29° 165° (SSE) 2,495 9.9 -35.0°
Maximum altitude 03:32:30 32° 142° (SE) 2,378 10.0 -34.7°
Drops below altitude 10° 03:40:22 10° 84° (E) 3,708 11.8 -33.6°
Sets 03:43:48 0° 75° (ENE) 4,705 12.6 -33.2°
